ANE4082 GCLP-LEMD

Flight info

Callsign ANE4082
Flight time 2h 15m
Altitude 36000
Route KORAL UG5 SONSO DCT NIRAL UN871 OSDAM UM985 ROMSO UG5 KORIS L27 VJF N10 SVL DCT HIJ M30 PARKA Z165 SOTUK
Aircraft CRJ9/M-SDFGIRWY/S

Departure

Time 2026-05-05 06:39
Airport Gran Canaria Airport (GCLP)

Arrival

Time 2026-05-05 08:54
Airport Adolfo Suárez Madrid–Barajas Airport (LEMD)
Time Latitude Longitude Altitude Speed Heading
2026-05-05 05:46 27.93726 -15.38690 47 ft 0 kts 292°
2026-05-05 05:53 27.93726 -15.38689 47 ft 0 kts 293°
2026-05-05 06:00 27.93725 -15.38689 47 ft 0 kts 293°
2026-05-05 06:03 27.93725 -15.38688 47 ft 0 kts 293°
2026-05-05 06:15 27.93725 -15.38687 47 ft 0 kts 293°
2026-05-05 06:26 27.93725 -15.38686 47 ft 0 kts 293°
2026-05-05 06:28 27.93717 -15.38664 45 ft 3 kts 291°
2026-05-05 06:28 27.93707 -15.38646 44 ft 4 kts 323°
2026-05-05 06:28 27.93699 -15.38629 41 ft 4 kts 265°
2026-05-05 06:29 27.93710 -15.38620 44 ft 3 kts 205°
2026-05-05 06:29 27.93732 -15.38610 45 ft 1 kts 201°
2026-05-05 06:29 27.93732 -15.38609 45 ft 0 kts 201°
2026-05-05 06:32 27.93725 -15.38613 45 ft 2 kts 201°
2026-05-05 06:32 27.93694 -15.38627 45 ft 8 kts 202°
2026-05-05 06:32 27.93621 -15.38660 46 ft 14 kts 201°
2026-05-05 06:33 27.93521 -15.38705 46 ft 17 kts 201°
2026-05-05 06:33 27.93405 -15.38755 48 ft 19 kts 201°
2026-05-05 06:33 27.93274 -15.38813 53 ft 20 kts 202°
2026-05-05 06:33 27.93151 -15.38871 56 ft 18 kts 209°
2026-05-05 06:34 27.93038 -15.38925 57 ft 17 kts 201°
2026-05-05 06:34 27.92935 -15.38970 56 ft 15 kts 201°
2026-05-05 06:34 27.92836 -15.39014 58 ft 16 kts 201°
2026-05-05 06:34 27.92728 -15.39061 61 ft 18 kts 201°
2026-05-05 06:35 27.92608 -15.39113 62 ft 19 kts 202°
2026-05-05 06:35 27.92480 -15.39171 64 ft 21 kts 201°
2026-05-05 06:35 27.92342 -15.39231 66 ft 22 kts 201°
2026-05-05 06:35 27.92205 -15.39292 63 ft 21 kts 199°
2026-05-05 06:36 27.92074 -15.39306 73 ft 16 kts 175°
2026-05-05 06:36 27.92023 -15.39301 73 ft 0 kts 175°
2026-05-05 06:37 27.92002 -15.39299 73 ft 5 kts 176°
2026-05-05 06:37 27.91950 -15.39289 69 ft 10 kts 154°
2026-05-05 06:37 27.91931 -15.39226 73 ft 10 kts 53°
2026-05-05 06:37 27.92005 -15.39183 68 ft 17 kts 21°
2026-05-05 06:38 27.92290 -15.39058 65 ft 73 kts 20°
2026-05-05 06:38 27.92925 -15.38777 58 ft 120 kts 21°
2026-05-05 06:38 27.93826 -15.38384 48 ft 159 kts 21°
2026-05-05 06:38 27.94911 -15.37873 401 ft 166 kts 20°
2026-05-05 06:39 27.95926 -15.37373 1079 ft 156 kts 24°
2026-05-05 06:39 27.96933 -15.36919 1550 ft 161 kts 21°
2026-05-05 06:39 27.98044 -15.36438 1891 ft 177 kts 23°
2026-05-05 06:39 27.99199 -15.35927 2487 ft 180 kts 22°
2026-05-05 06:40 28.00349 -15.35444 3259 ft 168 kts 21°
2026-05-05 06:40 28.01435 -15.35002 3952 ft 171 kts 20°
2026-05-05 06:40 28.02625 -15.34507 4284 ft 192 kts 20°
2026-05-05 06:40 28.03928 -15.33958 4783 ft 206 kts 20°
2026-05-05 06:41 28.05309 -15.33367 5315 ft 219 kts 20°
2026-05-05 06:41 28.06766 -15.32740 5925 ft 228 kts 19°
2026-05-05 06:41 28.08255 -15.32098 6617 ft 231 kts 19°
2026-05-05 06:41 28.09765 -15.31439 7302 ft 233 kts 19°
2026-05-05 06:42 28.11296 -15.30772 7922 ft 238 kts 18°
2026-05-05 06:42 28.12878 -15.30086 8363 ft 254 kts 18°
2026-05-05 06:42 28.14530 -15.29174 8629 ft 278 kts 39°
2026-05-05 06:42 28.15794 -15.27430 9014 ft 295 kts 57°
2026-05-05 06:43 28.16862 -15.25384 9495 ft 309 kts 59°
2026-05-05 06:43 28.17968 -15.23257 10100 ft 316 kts 58°
2026-05-05 06:43 28.19136 -15.21114 10719 ft 322 kts 57°
2026-05-05 06:43 28.20384 -15.18950 11111 ft 338 kts 55°
2026-05-05 06:44 28.21732 -15.16675 11378 ft 356 kts 55°
2026-05-05 06:44 28.23116 -15.14311 11718 ft 372 kts 55°
2026-05-05 06:44 28.24566 -15.11825 12170 ft 382 kts 56°
2026-05-05 06:44 28.26046 -15.09288 12765 ft 389 kts 56°
2026-05-05 06:45 28.27550 -15.06710 13365 ft 395 kts 56°
2026-05-05 06:45 28.29075 -15.04093 13940 ft 401 kts 56°
2026-05-05 06:45 28.30618 -15.01442 14500 ft 405 kts 56°
2026-05-05 06:45 28.32179 -14.98755 15070 ft 410 kts 56°
2026-05-05 06:46 28.33760 -14.96034 15614 ft 415 kts 56°
2026-05-05 06:46 28.35360 -14.93280 16165 ft 419 kts 56°
2026-05-05 06:46 28.36975 -14.90502 16684 ft 424 kts 56°
2026-05-05 06:46 28.38600 -14.87697 17206 ft 428 kts 56°
2026-05-05 06:47 28.40248 -14.84855 17714 ft 432 kts 56°
2026-05-05 06:47 28.41908 -14.81986 18222 ft 436 kts 56°
2026-05-05 06:47 28.43580 -14.79096 18689 ft 440 kts 56°
2026-05-05 06:47 28.45268 -14.76178 19172 ft 442 kts 56°
2026-05-05 06:48 28.46966 -14.73245 19590 ft 446 kts 56°
2026-05-05 06:48 28.48677 -14.70282 20005 ft 450 kts 56°
2026-05-05 06:48 28.50377 -14.67335 20409 ft 454 kts 56°
2026-05-05 06:48 28.52117 -14.64321 20806 ft 457 kts 56°
2026-05-05 06:49 28.53868 -14.61284 21195 ft 461 kts 56°
2026-05-05 06:49 28.55634 -14.58220 21573 ft 465 kts 56°
2026-05-05 06:49 28.57407 -14.55138 21971 ft 467 kts 56°
2026-05-05 06:49 28.59198 -14.52026 22336 ft 471 kts 56°
2026-05-05 06:50 28.60997 -14.48897 22703 ft 474 kts 56°
2026-05-05 06:50 28.62806 -14.45750 23065 ft 477 kts 56°
2026-05-05 06:50 28.64631 -14.42571 23421 ft 480 kts 56°
2026-05-05 06:50 28.66459 -14.39380 23747 ft 483 kts 56°
2026-05-05 06:51 28.68306 -14.36162 24057 ft 485 kts 56°
2026-05-05 06:51 28.70157 -14.32934 24366 ft 488 kts 56°
2026-05-05 06:51 28.72013 -14.29689 24649 ft 490 kts 56°
2026-05-05 06:51 28.73879 -14.26426 24940 ft 492 kts 56°
2026-05-05 06:52 28.75726 -14.23198 25212 ft 494 kts 56°
2026-05-05 06:52 28.77611 -14.19898 25483 ft 497 kts 55°
2026-05-05 06:52 28.79504 -14.16590 25753 ft 499 kts 56°
2026-05-05 06:52 28.81395 -14.13265 26022 ft 501 kts 56°
2026-05-05 06:53 28.83295 -14.09928 26282 ft 503 kts 56°
2026-05-05 06:53 28.85207 -14.06572 26535 ft 505 kts 56°
2026-05-05 06:53 28.87121 -14.03205 26790 ft 507 kts 55°
2026-05-05 06:53 28.89045 -13.99819 27041 ft 508 kts 55°
2026-05-05 06:54 28.90976 -13.96423 27286 ft 510 kts 55°
2026-05-05 06:54 28.92907 -13.93017 27527 ft 512 kts 55°
2026-05-05 06:54 28.94845 -13.89598 27751 ft 514 kts 55°
2026-05-05 06:54 28.96790 -13.86167 27979 ft 515 kts 55°
2026-05-05 06:55 28.98735 -13.82731 28232 ft 516 kts 55°
2026-05-05 06:55 29.00687 -13.79284 28508 ft 516 kts 55°
2026-05-05 06:55 29.02635 -13.75839 28804 ft 516 kts 54°
2026-05-05 06:55 29.04554 -13.72436 29100 ft 516 kts 54°
2026-05-05 06:56 29.06502 -13.68998 29381 ft 515 kts 54°
2026-05-05 06:56 29.08445 -13.65553 29642 ft 515 kts 54°
2026-05-05 06:56 29.10382 -13.62106 29929 ft 515 kts 54°
2026-05-05 06:56 29.12319 -13.58660 30208 ft 514 kts 54°
2026-05-05 06:57 29.14259 -13.55219 30362 ft 516 kts 55°
2026-05-05 06:57 29.16199 -13.51761 30546 ft 516 kts 55°
2026-05-05 06:57 29.18187 -13.48348 30756 ft 515 kts 52°
2026-05-05 06:57 29.20273 -13.45012 30984 ft 513 kts 50°
2026-05-05 06:58 29.21667 -13.42815 31065 ft 515 kts 51°
2026-05-05 06:58 29.23765 -13.39497 31259 ft 515 kts 51°
2026-05-05 06:58 29.25831 -13.36150 31441 ft 515 kts 51°
2026-05-05 06:58 29.27873 -13.32769 31594 ft 516 kts 52°
2026-05-05 06:59 29.29914 -13.29396 31774 ft 516 kts 52°
2026-05-05 06:59 29.31965 -13.26013 31937 ft 516 kts 52°
2026-05-05 06:59 29.34015 -13.22639 32096 ft 517 kts 52°
2026-05-05 06:59 29.36075 -13.19257 32251 ft 517 kts 51°
2026-05-05 07:00 29.38138 -13.15871 32407 ft 518 kts 51°
2026-05-05 07:00 29.40170 -13.12531 32557 ft 517 kts 51°
2026-05-05 07:00 29.42216 -13.09150 32827 ft 515 kts 51°
2026-05-05 07:00 29.44268 -13.05773 32946 ft 516 kts 51°
2026-05-05 07:01 29.46321 -13.02402 33096 ft 516 kts 51°
2026-05-05 07:01 29.48371 -12.99025 33263 ft 517 kts 51°
2026-05-05 07:01 29.50428 -12.95631 33382 ft 518 kts 51°
2026-05-05 07:01 29.52482 -12.92234 33531 ft 518 kts 51°
2026-05-05 07:02 29.54538 -12.88833 33652 ft 518 kts 51°
2026-05-05 07:02 29.56595 -12.85428 33765 ft 519 kts 51°
2026-05-05 07:02 29.58652 -12.82020 33912 ft 519 kts 51°
2026-05-05 07:02 29.60709 -12.78611 34050 ft 519 kts 51°
2026-05-05 07:03 29.62766 -12.75198 34147 ft 519 kts 51°
2026-05-05 07:03 29.64822 -12.71784 34270 ft 519 kts 51°
2026-05-05 07:03 29.66877 -12.68371 34408 ft 519 kts 51°
2026-05-05 07:03 29.68936 -12.64950 34509 ft 519 kts 51°
2026-05-05 07:04 29.70995 -12.61532 34614 ft 519 kts 51°
2026-05-05 07:04 29.73020 -12.58163 34744 ft 519 kts 51°
2026-05-05 07:04 29.75079 -12.54739 34831 ft 519 kts 51°
2026-05-05 07:04 29.77120 -12.51305 34944 ft 520 kts 52°
2026-05-05 07:05 29.79154 -12.47862 35067 ft 519 kts 52°
2026-05-05 07:05 29.81193 -12.44425 35178 ft 520 kts 51°
2026-05-05 07:05 29.83231 -12.40994 35287 ft 520 kts 52°
2026-05-05 07:05 29.85264 -12.37548 35446 ft 517 kts 51°
2026-05-05 07:06 29.87295 -12.34110 35515 ft 518 kts 51°
2026-05-05 07:06 29.89319 -12.30680 35627 ft 518 kts 52°
2026-05-05 07:06 29.91315 -12.27283 35699 ft 518 kts 52°
2026-05-05 07:06 29.93359 -12.23806 35824 ft 517 kts 52°
2026-05-05 07:07 29.95352 -12.20421 35921 ft 517 kts 52°
2026-05-05 07:07 29.99394 -12.13535 36016 ft 519 kts 52°
2026-05-05 07:08 30.03918 -12.07104 36041 ft 514 kts 39°
2026-05-05 07:08 30.09116 -12.01441 36044 ft 514 kts 36°
2026-05-05 07:09 30.14339 -11.95735 36048 ft 520 kts 38°
2026-05-05 07:09 30.19486 -11.89943 36043 ft 511 kts 38°
2026-05-05 07:10 30.24556 -11.84263 36034 ft 510 kts 38°
2026-05-05 07:10 30.29641 -11.78549 36037 ft 510 kts 38°
2026-05-05 07:11 30.34733 -11.72809 36036 ft 511 kts 38°
2026-05-05 07:11 30.39824 -11.67063 36037 ft 511 kts 38°
2026-05-05 07:12 30.44920 -11.61307 36069 ft 512 kts 38°
2026-05-05 07:12 30.50007 -11.55537 36046 ft 512 kts 38°
2026-05-05 07:13 30.55108 -11.49762 36035 ft 512 kts 38°
2026-05-05 07:13 30.60210 -11.43972 36031 ft 512 kts 38°
2026-05-05 07:14 30.65267 -11.38219 36035 ft 512 kts 38°
2026-05-05 07:14 30.70361 -11.32423 36037 ft 512 kts 38°
2026-05-05 07:15 30.75443 -11.26622 36079 ft 512 kts 38°
2026-05-05 07:15 30.80516 -11.20815 36048 ft 512 kts 38°
2026-05-05 07:16 30.85607 -11.14994 36042 ft 512 kts 38°
2026-05-05 07:16 30.90655 -11.09212 36039 ft 512 kts 38°
2026-05-05 07:17 30.95725 -11.03394 36044 ft 511 kts 38°
2026-05-05 07:17 31.00787 -10.97578 36036 ft 510 kts 38°
2026-05-05 07:18 31.05841 -10.91754 36075 ft 510 kts 39°
2026-05-05 07:18 31.10882 -10.85931 36047 ft 510 kts 39°
2026-05-05 07:19 31.15932 -10.80104 36043 ft 510 kts 39°
2026-05-05 07:19 31.20914 -10.74341 36038 ft 504 kts 39°
2026-05-05 07:20 31.25890 -10.68575 36031 ft 503 kts 39°
2026-05-05 07:20 31.30857 -10.62816 36040 ft 502 kts 39°
2026-05-05 07:21 31.35809 -10.57056 36013 ft 501 kts 39°
2026-05-05 07:21 31.40755 -10.51290 36044 ft 501 kts 39°
2026-05-05 07:22 31.45667 -10.45564 36043 ft 501 kts 39°
2026-05-05 07:22 31.50607 -10.39797 36036 ft 500 kts 39°
2026-05-05 07:23 31.55531 -10.34039 36042 ft 500 kts 39°
2026-05-05 07:23 31.60459 -10.28266 36041 ft 499 kts 39°
2026-05-05 07:24 31.65344 -10.22532 36045 ft 500 kts 39°
2026-05-05 07:24 31.70260 -10.16742 36061 ft 501 kts 40°
2026-05-05 07:25 31.75188 -10.10946 36053 ft 501 kts 40°
2026-05-05 07:25 31.80110 -10.05144 36052 ft 500 kts 40°
2026-05-05 07:26 31.85019 -9.99345 36050 ft 500 kts 40°
2026-05-05 07:26 31.89928 -9.93541 36052 ft 499 kts 40°
2026-05-05 07:27 31.94790 -9.87781 36053 ft 499 kts 40°
2026-05-05 07:27 31.99678 -9.81971 36062 ft 498 kts 41°
2026-05-05 07:28 32.04558 -9.76172 36060 ft 498 kts 40°
2026-05-05 07:28 32.09434 -9.70370 36058 ft 497 kts 40°
2026-05-05 07:29 32.14299 -9.64565 36060 ft 496 kts 40°
2026-05-05 07:29 32.19130 -9.58801 36060 ft 496 kts 41°
2026-05-05 07:30 32.23976 -9.53005 36061 ft 495 kts 41°
2026-05-05 07:30 32.31229 -9.44297 36065 ft 495 kts 41°
2026-05-05 07:31 32.36061 -9.38503 36067 ft 494 kts 41°
2026-05-05 07:31 32.40878 -9.32712 36071 ft 493 kts 41°
2026-05-05 07:32 32.45654 -9.26956 36067 ft 493 kts 41°
2026-05-05 07:32 32.50457 -9.21158 36068 ft 492 kts 41°
2026-05-05 07:33 32.55250 -9.15367 36078 ft 492 kts 41°
2026-05-05 07:33 32.60037 -9.09567 36088 ft 492 kts 41°
2026-05-05 07:34 32.64830 -9.03756 36079 ft 492 kts 41°
2026-05-05 07:34 32.69615 -8.97947 36078 ft 492 kts 41°
2026-05-05 07:35 32.74389 -8.92140 36079 ft 492 kts 41°
2026-05-05 07:35 32.79162 -8.86322 36076 ft 491 kts 41°
2026-05-05 07:36 32.83933 -8.80501 36073 ft 491 kts 41°
2026-05-05 07:36 32.88693 -8.74673 36081 ft 491 kts 42°
2026-05-05 07:37 32.93418 -8.68890 36075 ft 490 kts 41°
2026-05-05 07:37 32.98167 -8.63064 36071 ft 490 kts 41°
2026-05-05 07:38 33.02901 -8.57248 36071 ft 489 kts 41°
2026-05-05 07:38 33.07634 -8.51422 36075 ft 489 kts 41°
2026-05-05 07:39 33.12367 -8.45592 36078 ft 488 kts 42°
2026-05-05 07:39 33.17087 -8.39764 36080 ft 488 kts 42°
2026-05-05 07:40 33.22167 -8.34513 36081 ft 479 kts 29°
2026-05-05 07:40 33.27810 -8.30377 36083 ft 475 kts 24°
2026-05-05 07:41 33.33468 -8.26285 36083 ft 477 kts 26°
2026-05-05 07:41 33.39074 -8.22035 36081 ft 476 kts 26°
2026-05-05 07:42 33.44636 -8.17829 36089 ft 476 kts 27°
2026-05-05 07:42 33.50246 -8.13581 36085 ft 476 kts 27°
2026-05-05 07:43 33.55843 -8.09339 36090 ft 476 kts 27°
2026-05-05 07:43 33.61442 -8.05089 36081 ft 476 kts 27°
2026-05-05 07:44 33.67032 -8.00838 36074 ft 476 kts 27°
2026-05-05 07:44 33.72622 -7.96580 36085 ft 475 kts 28°
2026-05-05 07:45 33.78198 -7.92322 36084 ft 475 kts 27°
2026-05-05 07:45 33.83776 -7.88062 36088 ft 475 kts 27°
2026-05-05 07:46 33.89348 -7.83799 36081 ft 474 kts 27°
2026-05-05 07:46 33.93975 -7.80251 36076 ft 474 kts 27°
2026-05-05 07:47 33.99532 -7.75987 36096 ft 474 kts 28°
2026-05-05 07:47 34.05099 -7.71703 36085 ft 473 kts 28°
2026-05-05 07:48 34.10645 -7.67434 36078 ft 473 kts 28°
2026-05-05 07:48 34.16202 -7.63149 36078 ft 472 kts 28°
2026-05-05 07:49 34.21736 -7.58875 36078 ft 472 kts 28°
2026-05-05 07:49 34.27226 -7.54628 36102 ft 472 kts 28°
2026-05-05 07:50 34.32753 -7.50347 36091 ft 471 kts 28°
2026-05-05 07:50 34.38280 -7.46059 36088 ft 471 kts 28°
2026-05-05 07:51 34.43790 -7.41778 36084 ft 470 kts 29°
2026-05-05 07:51 34.49286 -7.37501 36082 ft 469 kts 28°
2026-05-05 07:52 34.54778 -7.33219 36092 ft 469 kts 29°
2026-05-05 07:52 34.60235 -7.28956 36088 ft 469 kts 28°
2026-05-05 07:53 34.65718 -7.24669 36085 ft 468 kts 29°
2026-05-05 07:53 34.71190 -7.20384 36085 ft 468 kts 29°
2026-05-05 07:54 34.76657 -7.16093 36085 ft 467 kts 29°
2026-05-05 07:54 34.82120 -7.11799 36090 ft 468 kts 29°
2026-05-05 07:55 34.87584 -7.07499 36083 ft 467 kts 29°
2026-05-05 07:55 34.93043 -7.03195 36081 ft 467 kts 29°
2026-05-05 07:56 34.98499 -6.98888 36080 ft 467 kts 29°
2026-05-05 07:56 35.03949 -6.94578 36081 ft 467 kts 29°
2026-05-05 07:57 35.09393 -6.90266 36083 ft 467 kts 29°
2026-05-05 07:57 35.14803 -6.85976 36077 ft 466 kts 29°
2026-05-05 07:58 35.20243 -6.81654 36072 ft 466 kts 29°
2026-05-05 07:58 35.25680 -6.77324 36071 ft 466 kts 29°
2026-05-05 07:59 35.31092 -6.72957 36063 ft 468 kts 34°
2026-05-05 07:59 35.33484 -6.70230 36087 ft 472 kts 46°
2026-05-05 07:59 35.35603 -6.67160 36078 ft 472 kts 49°
2026-05-05 08:00 35.39385 -6.60568 36075 ft 474 kts 59°
2026-05-05 08:00 35.42685 -6.53581 36062 ft 471 kts 50°
2026-05-05 08:01 35.44883 -6.50642 36076 ft 466 kts 38°
2026-05-05 08:01 35.47380 -6.48098 36079 ft 465 kts 33°
2026-05-05 08:01 35.52739 -6.43685 36074 ft 462 kts 24°
2026-05-05 08:02 35.58487 -6.40157 36094 ft 463 kts 21°
2026-05-05 08:02 35.64204 -6.36531 36066 ft 466 kts 23°
2026-05-05 08:03 35.69937 -6.32776 36057 ft 467 kts 23°
2026-05-05 08:03 35.75665 -6.29020 36052 ft 466 kts 23°
2026-05-05 08:04 35.81386 -6.25281 36054 ft 465 kts 23°
2026-05-05 08:04 35.87109 -6.21570 36055 ft 464 kts 22°
2026-05-05 08:05 35.92831 -6.17892 36060 ft 464 kts 22°
2026-05-05 08:05 35.98538 -6.14179 36059 ft 463 kts 23°
2026-05-05 08:06 36.04237 -6.10483 36059 ft 463 kts 23°
2026-05-05 08:06 36.09934 -6.06784 36080 ft 462 kts 22°
2026-05-05 08:07 36.15632 -6.03085 36062 ft 462 kts 22°
2026-05-05 08:07 36.21327 -5.99387 36055 ft 460 kts 20°
2026-05-05 08:08 36.27273 -5.97007 36071 ft 448 kts
2026-05-05 08:08 36.33372 -5.95774 36064 ft 441 kts 359°
2026-05-05 08:09 36.39473 -5.94880 36067 ft 442 kts
2026-05-05 08:09 36.45571 -5.93799 36065 ft 443 kts
2026-05-05 08:10 36.51674 -5.92716 36055 ft 444 kts
2026-05-05 08:10 36.57806 -5.91624 36052 ft 446 kts
2026-05-05 08:11 36.63978 -5.90513 36067 ft 449 kts
2026-05-05 08:11 36.70183 -5.89416 36072 ft 451 kts
2026-05-05 08:12 36.76413 -5.88301 36081 ft 453 kts
2026-05-05 08:12 36.82629 -5.87186 36065 ft 455 kts
2026-05-05 08:13 36.88909 -5.86055 36068 ft 456 kts
2026-05-05 08:13 36.95188 -5.84930 36063 ft 455 kts
2026-05-05 08:14 37.01462 -5.83802 36057 ft 455 kts
2026-05-05 08:14 37.07737 -5.82668 36051 ft 455 kts
2026-05-05 08:15 37.14008 -5.81531 36066 ft 455 kts
2026-05-05 08:15 37.20277 -5.80400 36054 ft 455 kts
2026-05-05 08:16 37.26543 -5.79265 36049 ft 455 kts
2026-05-05 08:16 37.32807 -5.78136 36068 ft 454 kts
2026-05-05 08:17 37.39024 -5.77012 36079 ft 454 kts 360°
2026-05-05 08:17 37.45205 -5.74846 36077 ft 468 kts 14°
2026-05-05 08:18 37.51157 -5.71395 36071 ft 473 kts 20°
2026-05-05 08:18 37.57019 -5.67609 36061 ft 472 kts 19°
2026-05-05 08:19 37.62934 -5.64030 36066 ft 472 kts 18°
2026-05-05 08:19 37.68851 -5.60434 36047 ft 472 kts 18°
2026-05-05 08:20 37.74729 -5.56857 36048 ft 472 kts 18°
2026-05-05 08:20 37.80650 -5.53251 36045 ft 472 kts 18°
2026-05-05 08:21 37.86570 -5.49635 36068 ft 473 kts 18°
2026-05-05 08:21 37.92496 -5.46010 36048 ft 473 kts 18°
2026-05-05 08:22 37.98420 -5.42379 36052 ft 473 kts 18°
2026-05-05 08:22 38.04347 -5.38738 36049 ft 473 kts 18°
2026-05-05 08:23 38.10234 -5.35123 36071 ft 473 kts 18°
2026-05-05 08:23 38.16170 -5.31466 36014 ft 475 kts 18°
2026-05-05 08:24 38.22116 -5.27797 35961 ft 476 kts 18°
2026-05-05 08:24 38.28079 -5.24107 35913 ft 477 kts 18°
2026-05-05 08:25 38.34053 -5.20409 35864 ft 478 kts 18°
2026-05-05 08:25 38.40037 -5.16690 35829 ft 479 kts 18°
2026-05-05 08:26 38.46044 -5.12976 35785 ft 477 kts 15°
2026-05-05 08:26 38.49155 -5.11709 35763 ft 461 kts
2026-05-05 08:26 38.52298 -5.11133 35760 ft 455 kts 356°
2026-05-05 08:27 38.58567 -5.10657 35786 ft 446 kts 349°
2026-05-05 08:27 38.64676 -5.11294 35747 ft 439 kts 343°
2026-05-05 08:28 38.70776 -5.12083 35708 ft 442 kts 345°
2026-05-05 08:28 38.76913 -5.12699 35666 ft 443 kts 345°
2026-05-05 08:29 38.83063 -5.13328 35661 ft 444 kts 345°
2026-05-05 08:30 38.92384 -5.11406 34883 ft 475 kts 19°
2026-05-05 08:30 38.95262 -5.09303 34412 ft 476 kts 23°
2026-05-05 08:30 38.98062 -5.07010 33921 ft 477 kts 25°
2026-05-05 08:30 39.00782 -5.04656 33387 ft 479 kts 26°
2026-05-05 08:31 39.03511 -5.02195 32908 ft 480 kts 28°
2026-05-05 08:31 39.06207 -4.99643 32381 ft 481 kts 30°
2026-05-05 08:31 39.08830 -4.96956 31856 ft 485 kts 35°
2026-05-05 08:31 39.11143 -4.93740 31328 ft 495 kts 51°
2026-05-05 08:32 39.12862 -4.89880 30871 ft 499 kts 62°
2026-05-05 08:32 39.14330 -4.85828 30386 ft 499 kts 62°
2026-05-05 08:32 39.15884 -4.81837 29877 ft 498 kts 58°
2026-05-05 08:32 39.17640 -4.77997 29310 ft 495 kts 54°
2026-05-05 08:33 39.19563 -4.74324 28729 ft 489 kts 46°
2026-05-05 08:33 39.21821 -4.71109 28187 ft 478 kts 38°
2026-05-05 08:33 39.24229 -4.68221 27652 ft 471 kts 36°
2026-05-05 08:33 39.25839 -4.66335 27297 ft 468 kts 36°
2026-05-05 08:34 39.28193 -4.63458 26808 ft 465 kts 39°
2026-05-05 08:34 39.31207 -4.59540 26119 ft 461 kts 40°
2026-05-05 08:34 39.33450 -4.56605 25603 ft 458 kts 40°
2026-05-05 08:34 39.35687 -4.53704 25101 ft 454 kts 40°
2026-05-05 08:35 39.37186 -4.51754 24760 ft 450 kts 40°
2026-05-05 08:35 39.39380 -4.48902 24257 ft 446 kts 40°
2026-05-05 08:35 39.41555 -4.46073 23751 ft 441 kts 40°
2026-05-05 08:35 39.43705 -4.43268 23177 ft 437 kts 40°
2026-05-05 08:36 39.45836 -4.40485 22590 ft 433 kts 40°
2026-05-05 08:36 39.47950 -4.37728 22021 ft 430 kts 40°
2026-05-05 08:36 39.50043 -4.34994 21507 ft 426 kts 40°
2026-05-05 08:36 39.52098 -4.32318 20978 ft 423 kts 40°
2026-05-05 08:37 39.54147 -4.29603 20434 ft 420 kts 41°
2026-05-05 08:37 39.56185 -4.26908 19894 ft 417 kts 40°
2026-05-05 08:37 39.58218 -4.24244 19371 ft 414 kts 40°
2026-05-05 08:37 39.60234 -4.21602 18858 ft 411 kts 40°
2026-05-05 08:38 39.62244 -4.18972 18046 ft 408 kts 41°
2026-05-05 08:38 39.64220 -4.16376 17178 ft 402 kts 41°
2026-05-05 08:38 39.66167 -4.13810 16343 ft 396 kts 41°
2026-05-05 08:38 39.68084 -4.11295 15539 ft 389 kts 41°
2026-05-05 08:39 39.69967 -4.08811 14768 ft 385 kts 43°
2026-05-05 08:39 39.71833 -4.06305 14028 ft 385 kts 43°
2026-05-05 08:39 39.73702 -4.03826 13257 ft 383 kts 43°
2026-05-05 08:39 39.75560 -4.01369 12441 ft 380 kts 43°
2026-05-05 08:40 39.77396 -3.98943 11639 ft 372 kts 43°
2026-05-05 08:40 39.79187 -3.96580 10850 ft 363 kts 43°
2026-05-05 08:40 39.80930 -3.94267 10075 ft 354 kts 43°
2026-05-05 08:40 39.82635 -3.91995 9248 ft 347 kts 44°
2026-05-05 08:41 39.84308 -3.89775 8421 ft 340 kts 44°
2026-05-05 08:41 39.85941 -3.87607 7990 ft 333 kts 44°
2026-05-05 08:41 39.87557 -3.85461 7905 ft 330 kts 44°
2026-05-05 08:41 39.89157 -3.83335 7820 ft 328 kts 44°
2026-05-05 08:42 39.90751 -3.81224 7723 ft 326 kts 44°
2026-05-05 08:42 39.92310 -3.79153 7637 ft 324 kts 45°
2026-05-05 08:42 39.93880 -3.77050 7545 ft 324 kts 44°
2026-05-05 08:42 39.95436 -3.74972 7463 ft 312 kts 44°
2026-05-05 08:43 39.96909 -3.73007 7371 ft 296 kts 44°
2026-05-05 08:43 39.98316 -3.71129 7270 ft 282 kts 44°
2026-05-05 08:43 39.99657 -3.69333 7159 ft 271 kts 45°
2026-05-05 08:43 40.00961 -3.67576 7084 ft 273 kts 45°
2026-05-05 08:44 40.02305 -3.65760 7026 ft 282 kts 45°
2026-05-05 08:44 40.03686 -3.63890 6973 ft 290 kts 45°
2026-05-05 08:44 40.05111 -3.61977 6915 ft 297 kts 45°
2026-05-05 08:44 40.06565 -3.60024 6852 ft 304 kts 45°
2026-05-05 08:45 40.08053 -3.58028 6793 ft 309 kts 45°
2026-05-05 08:45 40.09566 -3.55998 6718 ft 314 kts 45°
2026-05-05 08:45 40.11049 -3.54007 6630 ft 293 kts 45°
2026-05-05 08:45 40.12436 -3.52140 6530 ft 280 kts 45°
2026-05-05 08:46 40.13791 -3.50319 6437 ft 282 kts 45°
2026-05-05 08:46 40.15150 -3.48491 6340 ft 274 kts 45°
2026-05-05 08:46 40.16450 -3.46745 6221 ft 261 kts 45°
2026-05-05 08:46 40.17701 -3.45125 6102 ft 246 kts 42°
2026-05-05 08:47 40.18920 -3.43663 6033 ft 230 kts 40°
2026-05-05 08:47 40.20093 -3.42307 5917 ft 227 kts 40°
2026-05-05 08:47 40.21305 -3.40999 5820 ft 224 kts 33°
2026-05-05 08:47 40.22635 -3.39960 5725 ft 220 kts 26°
2026-05-05 08:48 40.23988 -3.39046 5631 ft 217 kts 26°
2026-05-05 08:48 40.25337 -3.38195 5508 ft 213 kts 14°
2026-05-05 08:48 40.26770 -3.37941 5431 ft 204 kts
2026-05-05 08:48 40.28169 -3.37880 5411 ft 195 kts 359°
2026-05-05 08:49 40.29514 -3.37835 5344 ft 192 kts 359°
2026-05-05 08:49 40.30839 -3.37786 5280 ft 189 kts 359°
2026-05-05 08:49 40.32058 -3.38093 5201 ft 175 kts 323°
2026-05-05 08:49 40.33008 -3.39038 5154 ft 170 kts 319°
2026-05-05 08:50 40.33923 -3.39992 5102 ft 171 kts 319°
2026-05-05 08:50 40.34853 -3.40961 5068 ft 168 kts 320°
2026-05-05 08:50 40.35766 -3.41886 5020 ft 163 kts 320°
2026-05-05 08:50 40.36663 -3.42760 4950 ft 161 kts 321°
2026-05-05 08:51 40.37560 -3.43642 4557 ft 159 kts 320°
2026-05-05 08:51 40.38430 -3.44505 4189 ft 155 kts 320°
2026-05-05 08:51 40.39259 -3.45350 3922 ft 146 kts 319°
2026-05-05 08:51 40.40056 -3.46181 3783 ft 149 kts 319°
2026-05-05 08:52 40.40868 -3.47018 3561 ft 146 kts 320°
2026-05-05 08:52 40.41656 -3.47816 3322 ft 139 kts 320°
2026-05-05 08:52 40.42392 -3.48568 3119 ft 129 kts 321°
2026-05-05 08:52 40.43083 -3.49287 2787 ft 127 kts 322°
2026-05-05 08:53 40.43833 -3.50048 2653 ft 139 kts 321°
2026-05-05 08:53 40.44623 -3.50825 2631 ft 146 kts 322°
2026-05-05 08:53 40.45444 -3.51647 2438 ft 152 kts 320°
2026-05-05 08:53 40.46293 -3.52542 2262 ft 157 kts 321°
2026-05-05 08:54 40.47171 -3.53426 2063 ft 156 kts 321°
2026-05-05 08:54 40.47971 -3.54240 1981 ft 125 kts 322°
2026-05-05 08:54 40.48526 -3.54805 1979 ft 80 kts 322°
2026-05-05 08:54 40.48787 -3.55115 1980 ft 31 kts 287°
2026-05-05 08:55 40.48818 -3.55273 1980 ft 0 kts 293°
2026-05-05 08:55 40.48819 -3.55275 1979 ft 0 kts 293°
2026-05-05 08:56 40.48820 -3.55278 1979 ft 1 kts 293°
2026-05-05 08:56 40.48830 -3.55310 1982 ft 7 kts 291°
2026-05-05 08:56 40.48857 -3.55393 1980 ft 13 kts 297°
2026-05-05 08:56 40.48926 -3.55501 1981 ft 18 kts 320°
2026-05-05 08:57 40.49031 -3.55610 1982 ft 21 kts 322°
2026-05-05 08:57 40.49153 -3.55733 1979 ft 23 kts 322°
2026-05-05 08:57 40.49276 -3.55858 1979 ft 20 kts 318°
2026-05-05 08:57 40.49301 -3.55993 1979 ft 16 kts 270°
2026-05-05 08:58 40.49299 -3.56138 1982 ft 16 kts 269°
2026-05-05 08:58 40.49270 -3.56244 1981 ft 11 kts 197°
2026-05-05 08:58 40.49219 -3.56259 1980 ft 0 kts 243°
2026-05-05 08:58 40.49219 -3.56261 1980 ft 0 kts 251°
2026-05-05 08:59 40.49219 -3.56264 1979 ft 0 kts 270°
2026-05-05 08:59 40.49220 -3.56283 1980 ft 4 kts 275°
2026-05-05 08:59 40.49220 -3.56339 1979 ft 8 kts 270°
2026-05-05 08:59 40.49220 -3.56359 1979 ft 1 kts 270°
2026-05-05 09:00 40.49220 -3.56353 1979 ft 1 kts 269°
2026-05-05 09:00 40.49220 -3.56352 1979 ft 0 kts 270°